Preview of NWS' New Version of Forecast
This preview is not operational and should not be used for support decisions.

Regional Weather Roundup (RWR)

Issued by Philadelphia/Mt Holly (PHI)

                            
000
ASUS41 KPHI 250512
RWRPHI

REGIONAL WEATHER ROUNDUP
NATIONAL WEATHER SERVICE MOUNT HOLLY NJ
100 AM EDT SAT MAY 25 2019

NOTE:  "FAIR" INDICATES FEW OR NO CLOUDS BELOW 12,000 FEET WITH NO
SIGNIFICANT WEATHER AND/OR OBSTRUCTIONS TO VISIBILITY.

 * = STATION DOES NOT REPORT PRECIPITATION (E.G. RAIN, SNOW, ETC.) 
        OR FOG.

NJZ015>026-250600-
SOUTHERN NEW JERSEY
  
CITY           SKY/WX    TMP DP  RH WIND       PRES   REMARKS
POMONA         FAIR      60  52  74 NE7       30.12R                  
WILDWOOD*      FAIR      61  55  81 CALM      30.13R                  
MILLVILLE      FAIR      65  51  60 NE6       30.12R                  
WRIGHTSTOWN    FAIR      60  49  68 NE7       30.12R                  
MOUNT HOLLY    FAIR      60  49  66 N7        30.14R                  
TRENTON        FAIR      59  49  69 N7        30.14R                  

$$
NJZ001>014-250600-
NORTHERN NEW JERSEY
  
CITY           SKY/WX    TMP DP  RH WIND       PRES   REMARKS
SUSSEX         FAIR      51  49  92 SW3       30.17R                  
ANDOVER*         N/A     52  49  89 CALM      30.17R                  
MORRISTOWN     FAIR      55  50  82 CALM      30.15R                  
NEWARK         FAIR      61  49  64 N10       30.14R                  
TETERBORO      FAIR      60  49  66 N6        30.13R                  
CALDWELL       FAIR      59  51  75 CALM      30.16R                  
SOMERVILLE     FAIR      56  50  80 W3        30.14R                  
ALLAIRE*       FAIR      58  50  75 NW6       30.15R                  
TOMS RIVER*    FAIR      60  51  72 N5        30.15R                  

$$
PAZ043-044-047-054-055-060>062-066>071-250600-
EASTERN PENNSYLVANIA
  
CITY           SKY/WX    TMP DP  RH WIND       PRES   REMARKS
PHILADELPHIA   FAIR      65  49  56 NE15      30.14R                  
NORTH PHILA    FAIR      63  49  60 NE6       30.16R                  
BLUE BELL*     FAIR      60  50  68 N3        30.16R                  
DOYLESTOWN     FAIR      60  48  64 NE3       30.15R                  
QUAKERTOWN*    CLEAR     59  50  72 CALM      30.17                   
PERKASIE*      FAIR      55  50  82 CALM      30.17R                  
POTTSTOWN      FAIR      60  48  64 N5        30.17R                  
LANCASTER      CLOUDY    66  55  67 NE7       30.14R                  
COATESVILLE    FAIR      63  52  67 NE6G12    30.17R                  
WEST CHESTER   FAIR      63  50  63 NE7       30.16R                  
READING        FAIR      64  52  64 E8        30.15R                  
ALLENTOWN      FAIR      61  47  59 N5        30.15S                  
QN CITY/ALNTWN FAIR      61  48  63 NE5       30.17S                  
MOUNT POCONO   FAIR      48  46  93 N3        30.18R                  
HAZLETON       FAIR      50  45  81 CALM      30.21S                  
LEHIGHTON      FAIR      54  50  87 CALM      30.18R                  
WILKES BARRE   FAIR      54  48  80 E7        30.17S                  

$$
DEZALL-MDZ008-012-015-019-020-250600-
DELAWARE AND EASTERN MARYLAND
  
CITY           SKY/WX    TMP DP  RH WIND       PRES   REMARKS
WILMINGTON     FAIR      67  52  58 NE12      30.14R                  
DOVER          CLEAR     65  54  68 NE9       30.12R                  
CHESWOLD         N/A     66  54  63 NE10      30.12R                  
GEORGETOWN     FAIR      65  55  70 E7        30.12R                  
EASTON         FAIR      64  58  81 CALM      30.14R                  
STEVENSVILLE   FAIR      66  61  82 CALM      30.10S                  
PATUXENT       FAIR      67  62  84 CALM      30.09S                  
OCEAN CITY     FAIR      64  56  75 E5        30.11S                  
WALLOPS ISLAND MOCLDY    68  57  68 E8        30.11R                  
CAMBRIDGE      PTCLDY    63  59  88 CALM      30.10R                  
SALISBURY      FAIR      64  57  78 E9        30.10R                  

$$
PAZ001-021-NYZ056-072-MDZ011-DCZ001-250600-
OTHER NEARBY LOCATIONS
  
CITY           SKY/WX    TMP DP  RH WIND       PRES   REMARKS
HARRISBURG     MOCLDY    68  53  58 E5        30.12R                  
STATE COLLEGE  CLOUDY    60  51  72 CALM      30.15S                  
WILLIAMSPORT   FAIR      60  51  72 E6        30.15S                  
BINGHAMTON     FAIR      50  45  83 CALM      30.18R                  
NEW YORK CITY  FAIR      61  49  64 CALM      30.17R                  
BALTIMORE      MOCLDY    65  56  72 CALM      30.10R                  
WASHINGTON DC  FAIR      72  59  63 S3        30.10R                  

$$